When you browse on this site, cookies collect data to enhance your experience and personalize the content and advertising you see.
Visit our Privacy Policy to learn more. By continuing to use the site, you agree to this use of cookies and data.
  • In Italy
  • List of Countries
  • For 7 days
  • Water Temperature
  • Satellite Maps
  • Weather Map
  • Weather Widgets
  • user-avatar
    Login

    Hourly Weather Mazyr

    Today, 26 May, Sunday

    Time Temperature Precipitation Wind Pressure Humidity
    00:00 +13°C° 0 mm 3 mps 741 mmHg 83%
    01:00 +13°C° 0 mm 2 mps 742 mmHg 85%
    02:00 +13°C° 0 mm 2 mps 742 mmHg 86%
    03:00 +13°C° 0 mm 2 mps 742 mmHg 87%
    04:00 +13°C° 0 mm 2 mps 742 mmHg 87%
    05:00 +13°C° 0 mm 2 mps 743 mmHg 88%
    06:00 +13°C° 0 mm 3 mps 743 mmHg 82%
    07:00 +16°C° 0 mm 3 mps 743 mmHg 77%
    08:00 +18°C° 0 mm 4 mps 743 mmHg 71%
    09:00 +18°C° 0 mm 4 mps 743 mmHg 66%
    10:00 +19°C° 0 mm 5 mps 743 mmHg 62%
    11:00 +19°C° 0 mm 5 mps 743 mmHg 58%
    12:00 +20°C° 0 mm 5 mps 743 mmHg 56%
    13:00 +20°C° 0 mm 5 mps 743 mmHg 54%
    14:00 +21°C° 0 mm 6 mps 743 mmHg 52%
    15:00 +20°C° 0 mm 5 mps 743 mmHg 53%
    16:00 +20°C° 0 mm 5 mps 743 mmHg 55%
    17:00 +20°C° 0 mm 5 mps 743 mmHg 57%
    18:00 +18°C° 0 mm 4 mps 743 mmHg 65%
    19:00 +16°C° 0 mm 3 mps 743 mmHg 72%
    20:00 +15°C° 0 mm 2 mps 743 mmHg 80%
    21:00 +14°C° 0 mm 2 mps 744 mmHg 83%
    22:00 +13°C° 0 mm 2 mps 744 mmHg 87%
    23:00 +12°C° 0 mm 2 mps 744 mmHg 91%

    Tomorrow, 27 May, Monday

    Time Temperature Precipitation Wind Pressure Humidity
    00:00 +12°C° 0 mm 2 mps 745 mmHg 91%
    01:00 +10°C° 0 mm 2 mps 745 mmHg 92%
    02:00 +11°C° 0 mm 1 mps 745 mmHg 92%
    03:00 +10°C° 0 mm 2 mps 745 mmHg 92%
    04:00 +10°C° 0 mm 2 mps 745 mmHg 91%
    05:00 +10°C° 0 mm 2 mps 745 mmHg 90%
    06:00 +14°C° 0 mm 2 mps 745 mmHg 84%
    07:00 +16°C° 0 mm 3 mps 745 mmHg 78%
    08:00 +18°C° 0 mm 3 mps 746 mmHg 72%
    09:00 +20°C° 0 mm 4 mps 746 mmHg 65%
    10:00 +22°C° 0 mm 4 mps 746 mmHg 58%
    11:00 +23°C° 0 mm 4 mps 746 mmHg 52%
    12:00 +25°C° 0 mm 4 mps 745 mmHg 50%
    13:00 +26°C° 0 mm 4 mps 745 mmHg 48%
    14:00 +27°C° 0 mm 4 mps 745 mmHg 47%
    15:00 +27°C° 0 mm 4 mps 745 mmHg 50%
    16:00 +26°C° 0 mm 4 mps 745 mmHg 54%
    17:00 +26°C° 0 mm 4 mps 744 mmHg 58%
    18:00 +23°C° 0.2 mm 4 mps 744 mmHg 66%
    19:00 +21°C° 0.2 mm 3 mps 744 mmHg 73%
    20:00 +20°C° 0.2 mm 3 mps 744 mmHg 81%
    21:00 +19°C° 0 mm 3 mps 744 mmHg 84%
    22:00 +18°C° 0 mm 3 mps 745 mmHg 88%
    23:00 +17°C° 0 mm 3 mps 745 mmHg 91%

    Day after tomorrow, 28 May, Tuesday

    Time Temperature Precipitation Wind Pressure Humidity
    00:00 +17°C° 0 mm 2 mps 745 mmHg 92%
    01:00 +17°C° 0 mm 2 mps 745 mmHg 93%
    02:00 +17°C° 0 mm 2 mps 745 mmHg 94%
    03:00 +17°C° 0.1 mm 2 mps 745 mmHg 93%
    04:00 +17°C° 0.1 mm 3 mps 745 mmHg 93%
    05:00 +18°C° 0.1 mm 3 mps 745 mmHg 92%
    06:00 +19°C° 0 mm 4 mps 745 mmHg 85%
    07:00 +20°C° 0 mm 4 mps 745 mmHg 78%
    08:00 +22°C° 0 mm 5 mps 745 mmHg 71%
    09:00 +23°C° 0 mm 6 mps 744 mmHg 66%
    10:00 +26°C° 0 mm 6 mps 744 mmHg 60%
    11:00 +27°C° 0 mm 7 mps 744 mmHg 55%
    12:00 +27°C° 0 mm 7 mps 744 mmHg 52%
    13:00 +28°C° 0 mm 7 mps 744 mmHg 49%
    14:00 +28°C° 0 mm 7 mps 744 mmHg 47%
    15:00 +28°C° 0 mm 7 mps 743 mmHg 49%
    16:00 +27°C° 0 mm 7 mps 743 mmHg 52%
    17:00 +27°C° 0 mm 6 mps 743 mmHg 55%
    18:00 +24°C° 0 mm 6 mps 743 mmHg 61%
    19:00 +23°C° 0 mm 5 mps 743 mmHg 66%
    20:00 +22°C° 0 mm 4 mps 743 mmHg 71%
    21:00 +21°C° 0 mm 4 mps 743 mmHg 73%
    22:00 +21°C° 0 mm 5 mps 743 mmHg 75%
    23:00 +20°C° 0 mm 5 mps 743 mmHg 77%

    29 May, Wednesday

    Time Temperature Precipitation Wind Pressure Humidity
    00:00 +20°C° 0 mm 5 mps 743 mmHg 72%
    01:00 +19°C° 0 mm 5 mps 743 mmHg 68%
    02:00 +17°C° 0 mm 5 mps 743 mmHg 64%
    03:00 +17°C° 0 mm 6 mps 743 mmHg 67%
    04:00 +17°C° 0 mm 6 mps 743 mmHg 69%
    05:00 +16°C° 0 mm 6 mps 743 mmHg 72%
    06:00 +19°C° 0 mm 6 mps 743 mmHg 69%
    07:00 +20°C° 0 mm 7 mps 743 mmHg 65%
    08:00 +21°C° 0 mm 7 mps 743 mmHg 62%
    09:00 +22°C° 0 mm 7 mps 743 mmHg 60%
    10:00 +23°C° 0 mm 7 mps 743 mmHg 57%
    11:00 +24°C° 0 mm 7 mps 743 mmHg 55%
    12:00 +26°C° 0 mm 7 mps 743 mmHg 55%
    13:00 +26°C° 0 mm 7 mps 743 mmHg 55%
    14:00 +26°C° 0 mm 6 mps 743 mmHg 55%
    15:00 +24°C° 0.7 mm 6 mps 743 mmHg 61%
    16:00 +25°C° 0.7 mm 5 mps 743 mmHg 68%
    17:00 +23°C° 0.7 mm 4 mps 743 mmHg 75%
    18:00 +22°C° 1.2 mm 4 mps 743 mmHg 78%
    19:00 +21°C° 1.2 mm 3 mps 743 mmHg 82%
    20:00 +20°C° 1.2 mm 3 mps 743 mmHg 85%
    21:00 +19°C° 0.6 mm 2 mps 743 mmHg 88%
    22:00 +19°C° 0.6 mm 2 mps 743 mmHg 91%
    23:00 +19°C° 0.6 mm 1 mps 743 mmHg 94%

    30 May, Thursday

    Time Temperature Precipitation Wind Pressure Humidity
    00:00 +19°C° 0.1 mm 1 mps 744 mmHg 94%
    01:00 +18°C° 0.1 mm 1 mps 744 mmHg 95%
    02:00 +18°C° 0.1 mm 1 mps 744 mmHg 95%
    03:00 +18°C° 0.2 mm 1 mps 744 mmHg 95%
    04:00 +18°C° 0.2 mm 1 mps 744 mmHg 96%
    05:00 +18°C° 0.2 mm 1 mps 745 mmHg 96%
    06:00 +19°C° 0.1 mm 1 mps 745 mmHg 93%
    07:00 +20°C° 0.1 mm 1 mps 745 mmHg 90%
    08:00 +21°C° 0.1 mm 1 mps 745 mmHg 88%
    09:00 +20°C° 0.5 mm 2 mps 746 mmHg 84%
    10:00 +21°C° 0.5 mm 3 mps 746 mmHg 81%
    11:00 +22°C° 0.5 mm 3 mps 746 mmHg 78%
    12:00 +22°C° 0.2 mm 3 mps 746 mmHg 76%
    13:00 +22°C° 0.2 mm 3 mps 746 mmHg 75%
    14:00 +22°C° 0.2 mm 3 mps 746 mmHg 74%
    15:00 +22°C° 0.2 mm 4 mps 746 mmHg 75%
    16:00 +21°C° 0.2 mm 4 mps 746 mmHg 76%
    17:00 +21°C° 0.2 mm 4 mps 747 mmHg 78%
    18:00 +20°C° 0 mm 4 mps 747 mmHg 80%
    19:00 +19°C° 0 mm 4 mps 747 mmHg 81%
    20:00 +18°C° 0 mm 4 mps 748 mmHg 83%
    21:00 +17°C° 0 mm 4 mps 748 mmHg 85%
    22:00 +15°C° 0 mm 4 mps 748 mmHg 87%
    23:00 +14°C° 0 mm 3 mps 749 mmHg 88%

    31 May, Friday

    Time Temperature Precipitation Wind Pressure Humidity
    00:00 +13°C° 0 mm 3 mps 749 mmHg 89%
    01:00 +13°C° 0 mm 3 mps 749 mmHg 90%
    02:00 +12°C° 0 mm 3 mps 749 mmHg 91%
    03:00 +12°C° 0 mm 3 mps 749 mmHg 88%
    04:00 +12°C° 0 mm 3 mps 749 mmHg 86%
    05:00 +12°C° 0 mm 4 mps 749 mmHg 83%
    06:00 +12°C° 0.1 mm 4 mps 749 mmHg 80%
    07:00 +13°C° 0.1 mm 4 mps 749 mmHg 78%
    08:00 +13°C° 0.1 mm 4 mps 750 mmHg 75%
    09:00 +14°C° 0.1 mm 3 mps 749 mmHg 71%
    10:00 +16°C° 0.1 mm 3 mps 749 mmHg 66%
    11:00 +17°C° 0.1 mm 3 mps 749 mmHg 62%
    12:00 +19°C° 0 mm 3 mps 749 mmHg 56%
    13:00 +20°C° 0 mm 4 mps 749 mmHg 51%
    14:00 +21°C° 0 mm 4 mps 749 mmHg 45%
    15:00 +21°C° 0 mm 4 mps 749 mmHg 48%
    16:00 +21°C° 0 mm 4 mps 749 mmHg 50%
    17:00 +21°C° 0 mm 4 mps 749 mmHg 52%
    18:00 +19°C° 0 mm 4 mps 749 mmHg 57%
    19:00 +17°C° 0 mm 4 mps 750 mmHg 62%
    20:00 +15°C° 0 mm 4 mps 750 mmHg 67%
    21:00 +14°C° 0 mm 4 mps 750 mmHg 69%
    22:00 +13°C° 0 mm 4 mps 750 mmHg 72%
    23:00 +12°C° 0 mm 4 mps 751 mmHg 74%
    Show more